軌道要素
Epoch 2022 Jan. 21.0 TT = JDT 2459600.5
T 2021 Aug. 28.09042 TT Rudenko
q 3.3525821 (2000.0) P Q
n 0.04895078 Peri. 88.71292 -0.51855056 -0.68137701
a 7.4011003 Node 47.96708 +0.18005142 -0.67759586
e 0.5470157 Incl. 44.06351 +0.83587487 -0.27674757
P 20.1
From 96 observations 2022 Jan. 21-May 10, mean residual 0".5.
|